Location: Lane
(33.5226°N, 79.8788°W)
Time: 19:44:44
(UTC+00:00)

Explorer 11/Cluster Stage 4 - Pass Details

Date: 04 October 2022
Orbit: 466 x 1247 km, 28.8° (Epoch: 01 December)

Event Time Altitude Azimuth Distance (km) Brightness Sun altitude
Rises 15:15:12 0° 230° (SW) 4,128 10.3 43.5°
Reaches altitude 10° 15:18:18 10° 223° (SW) 3,197 9.9 43.9°
Maximum altitude 15:25:38 37° 160° (SSE) 1,819 10.4 44.9°
Drops below altitude 10° 15:32:39 10° 96° (E) 3,066 10.2 45.8°
Sets 15:35:34 0° 88° (E) 3,943 10.5 46.1°
